Back to catalog

STARLINK-11123

AliveCommunicationsVLEO
NORAD 59948·PAYLOAD·🇺🇸 United States

Launched Jun 5, 2024 from Cape Canaveral Space Force Station

Loading…

Next Passes (next 24 hours)

TLE

FreshSource: CelesTrak SupGP

Epoch: Sep 14, 2026, 20:42 UTC

1 59948C 24107D   26257.86298611  .00214490  00000+0  17648-2 0  2576
2 59948  53.1576  38.9073 0001183  83.6924 328.9495 15.69630061    17

Track STARLINK-11123 in real time with AllMySat

Download on the App Store